• In Portugal
  • List of Countries
  • For 7 days
  • Water Temperature
  • Satellite Maps
  • Weather Map
  • Weather Widgets
  • user-avatar
    Login

    Hourly Weather Juwaja

    Today, 15 December, Friday

    Time Temperature Precipitation Wind Pressure Humidity
    00:00 +14°C° 0 mm 2 mps 739 mmHg 88%
    01:00 +14°C° 0 mm 2 mps 739 mmHg 89%
    02:00 +14°C° 0 mm 2 mps 739 mmHg 89%
    03:00 +13°C° 0.1 mm 2 mps 739 mmHg 88%
    04:00 +13°C° 0.1 mm 2 mps 739 mmHg 88%
    05:00 +13°C° 0.1 mm 2 mps 740 mmHg 88%
    06:00 +14°C° 0 mm 2 mps 740 mmHg 84%
    07:00 +15°C° 0 mm 1 mps 740 mmHg 81%
    08:00 +16°C° 0 mm 1 mps 740 mmHg 75%
    09:00 +18°C° 0 mm 1 mps 740 mmHg 70%
    10:00 +19°C° 0 mm 1 mps 741 mmHg 64%
    11:00 +19°C° 0 mm 2 mps 741 mmHg 59%
    12:00 +19°C° 0 mm 2 mps 741 mmHg 58%
    13:00 +19°C° 0 mm 2 mps 741 mmHg 57%
    14:00 +20°C° 0 mm 3 mps 741 mmHg 54%
    15:00 +19°C° 0 mm 3 mps 741 mmHg 61%
    16:00 +18°C° 0 mm 3 mps 741 mmHg 68%
    17:00 +17°C° 0 mm 2 mps 741 mmHg 75%
    18:00 +16°C° 0 mm 2 mps 741 mmHg 78%
    19:00 +16°C° 0 mm 2 mps 741 mmHg 81%
    20:00 +15°C° 0 mm 1 mps 742 mmHg 85%
    21:00 +15°C° 0 mm 1 mps 742 mmHg 85%
    22:00 +15°C° 0 mm 1 mps 742 mmHg 86%
    23:00 +14°C° 0 mm 1 mps 742 mmHg 87%

    Tomorrow, 16 December, Saturday

    Time Temperature Precipitation Wind Pressure Humidity
    00:00 +14°C° 0 mm 1 mps 742 mmHg 87%
    01:00 +14°C° 0 mm 1 mps 742 mmHg 88%
    02:00 +13°C° 0 mm 0 mps 742 mmHg 88%
    03:00 +13°C° 0 mm 1 mps 742 mmHg 88%
    04:00 +13°C° 0 mm 1 mps 742 mmHg 88%
    05:00 +13°C° 0 mm 1 mps 742 mmHg 88%
    06:00 +14°C° 0 mm 1 mps 742 mmHg 85%
    07:00 +15°C° 0 mm 1 mps 743 mmHg 81%
    08:00 +16°C° 0 mm 1 mps 743 mmHg 77%
    09:00 +18°C° 0 mm 1 mps 743 mmHg 71%
    10:00 +19°C° 0 mm 1 mps 743 mmHg 64%
    11:00 +20°C° 0 mm 1 mps 743 mmHg 57%
    12:00 +21°C° 0 mm 1 mps 743 mmHg 55%
    13:00 +21°C° 0 mm 1 mps 742 mmHg 53%
    14:00 +21°C° 0 mm 1 mps 742 mmHg 50%
    15:00 +20°C° 0 mm 1 mps 742 mmHg 57%
    16:00 +19°C° 0 mm 1 mps 742 mmHg 63%
    17:00 +18°C° 0 mm 1 mps 742 mmHg 69%
    18:00 +18°C° 0 mm 1 mps 742 mmHg 70%
    19:00 +16°C° 0 mm 1 mps 742 mmHg 72%
    20:00 +16°C° 0 mm 1 mps 742 mmHg 73%
    21:00 +15°C° 0 mm 1 mps 742 mmHg 72%
    22:00 +15°C° 0 mm 1 mps 742 mmHg 70%
    23:00 +15°C° 0 mm 1 mps 742 mmHg 68%

    Day after tomorrow, 17 December, Sunday

    Time Temperature Precipitation Wind Pressure Humidity
    00:00 +15°C° 0 mm 1 mps 742 mmHg 65%
    01:00 +15°C° 0 mm 2 mps 742 mmHg 63%
    02:00 +15°C° 0 mm 2 mps 742 mmHg 60%
    03:00 +15°C° 0 mm 2 mps 742 mmHg 58%
    04:00 +15°C° 0 mm 2 mps 742 mmHg 56%
    05:00 +15°C° 0 mm 2 mps 741 mmHg 53%
    06:00 +16°C° 0 mm 2 mps 742 mmHg 51%
    07:00 +16°C° 0 mm 2 mps 742 mmHg 49%
    08:00 +17°C° 0 mm 3 mps 742 mmHg 47%
    09:00 +18°C° 0 mm 2 mps 742 mmHg 42%
    10:00 +20°C° 0 mm 2 mps 742 mmHg 37%
    11:00 +23°C° 0 mm 2 mps 742 mmHg 31%
    12:00 +23°C° 0 mm 2 mps 741 mmHg 31%
    13:00 +23°C° 0 mm 2 mps 741 mmHg 30%
    14:00 +24°C° 0 mm 2 mps 741 mmHg 29%
    15:00 +23°C° 0 mm 2 mps 741 mmHg 33%
    16:00 +20°C° 0 mm 2 mps 741 mmHg 37%
    17:00 +19°C° 0 mm 2 mps 741 mmHg 41%
    18:00 +19°C° 0 mm 2 mps 741 mmHg 40%
    19:00 +19°C° 0 mm 2 mps 741 mmHg 40%
    20:00 +19°C° 0 mm 1 mps 741 mmHg 39%
    21:00 +19°C° 0 mm 2 mps 742 mmHg 37%
    22:00 +19°C° 0 mm 2 mps 742 mmHg 36%
    23:00 +19°C° 0 mm 2 mps 742 mmHg 34%

    18 December, Monday

    Time Temperature Precipitation Wind Pressure Humidity
    00:00 +18°C° 0 mm 2 mps 741 mmHg 34%
    01:00 +18°C° 0 mm 2 mps 741 mmHg 34%
    02:00 +19°C° 0 mm 1 mps 741 mmHg 34%
    03:00 +18°C° 0 mm 2 mps 741 mmHg 33%
    04:00 +18°C° 0 mm 2 mps 741 mmHg 33%
    05:00 +18°C° 0 mm 2 mps 741 mmHg 33%
    06:00 +18°C° 0 mm 2 mps 741 mmHg 33%
    07:00 +19°C° 0 mm 2 mps 741 mmHg 34%
    08:00 +19°C° 0 mm 2 mps 742 mmHg 35%
    09:00 +20°C° 0 mm 2 mps 741 mmHg 32%
    10:00 +23°C° 0 mm 2 mps 741 mmHg 28%
    11:00 +24°C° 0 mm 3 mps 741 mmHg 24%
    12:00 +24°C° 0 mm 2 mps 741 mmHg 24%
    13:00 +24°C° 0 mm 2 mps 740 mmHg 24%
    14:00 +24°C° 0 mm 2 mps 740 mmHg 24%
    15:00 +23°C° 0 mm 2 mps 740 mmHg 27%
    16:00 +21°C° 0 mm 2 mps 740 mmHg 30%
    17:00 +21°C° 0 mm 1 mps 740 mmHg 32%
    18:00 +21°C° 0 mm 1 mps 740 mmHg 31%
    19:00 +21°C° 0 mm 1 mps 740 mmHg 30%
    20:00 +20°C° 0 mm 1 mps 740 mmHg 28%
    21:00 +21°C° 0 mm 1 mps 740 mmHg 27%
    22:00 +20°C° 0 mm 2 mps 740 mmHg 27%
    23:00 +20°C° 0 mm 2 mps 740 mmHg 26%

    19 December, Tuesday

    Time Temperature Precipitation Wind Pressure Humidity
    00:00 +20°C° 0 mm 1 mps 740 mmHg 28%
    01:00 +20°C° 0 mm 1 mps 740 mmHg 31%
    02:00 +19°C° 0 mm 1 mps 740 mmHg 33%
    03:00 +19°C° 0 mm 1 mps 740 mmHg 34%
    04:00 +19°C° 0 mm 1 mps 740 mmHg 35%
    05:00 +19°C° 0 mm 1 mps 740 mmHg 36%
    06:00 +18°C° 0 mm 2 mps 741 mmHg 37%
    07:00 +19°C° 0 mm 2 mps 741 mmHg 39%
    08:00 +19°C° 0 mm 2 mps 742 mmHg 41%
    09:00 +20°C° 0 mm 2 mps 742 mmHg 39%
    10:00 +21°C° 0 mm 2 mps 741 mmHg 37%
    11:00 +23°C° 0 mm 2 mps 741 mmHg 34%
    12:00 +22°C° 0 mm 3 mps 741 mmHg 36%
    13:00 +22°C° 0 mm 3 mps 741 mmHg 37%
    14:00 +22°C° 0 mm 3 mps 740 mmHg 38%
    15:00 +21°C° 0 mm 3 mps 741 mmHg 46%
    16:00 +20°C° 0 mm 3 mps 741 mmHg 54%
    17:00 +19°C° 0 mm 3 mps 741 mmHg 62%
    18:00 +18°C° 0 mm 3 mps 741 mmHg 63%
    19:00 +18°C° 0 mm 2 mps 741 mmHg 63%
    20:00 +18°C° 0 mm 2 mps 741 mmHg 63%
    21:00 +18°C° 0 mm 2 mps 741 mmHg 61%
    22:00 +18°C° 0 mm 2 mps 741 mmHg 60%
    23:00 +18°C° 0 mm 2 mps 741 mmHg 58%

    20 December, Wednesday

    Time Temperature Precipitation Wind Pressure Humidity
    00:00 +18°C° 0 mm 2 mps 741 mmHg 59%
    01:00 +17°C° 0 mm 2 mps 741 mmHg 59%
    02:00 +17°C° 0 mm 3 mps 741 mmHg 60%
    03:00 +17°C° 0 mm 3 mps 740 mmHg 61%
    04:00 +17°C° 0 mm 3 mps 740 mmHg 61%
    05:00 +17°C° 0 mm 2 mps 740 mmHg 62%
    06:00 +18°C° 0 mm 2 mps 741 mmHg 59%
    07:00 +18°C° 0 mm 2 mps 741 mmHg 56%
    08:00 +19°C° 0 mm 2 mps 741 mmHg 53%
    09:00 +20°C° 0 mm 2 mps 741 mmHg 48%
    10:00 +21°C° 0 mm 2 mps 741 mmHg 42%
    11:00 +24°C° 0 mm 2 mps 741 mmHg 37%
    12:00 +24°C° 0 mm 3 mps 741 mmHg 38%
    13:00 +24°C° 0 mm 3 mps 740 mmHg 39%
    14:00 +23°C° 0 mm 4 mps 740 mmHg 40%
    15:00 +22°C° 0 mm 4 mps 740 mmHg 48%
    16:00 +20°C° 0 mm 4 mps 740 mmHg 56%
    17:00 +19°C° 0 mm 3 mps 740 mmHg 65%
    18:00 +18°C° 0 mm 3 mps 740 mmHg 66%
    19:00 +18°C° 0 mm 3 mps 741 mmHg 67%
    20:00 +17°C° 0 mm 2 mps 741 mmHg 67%
    21:00 +17°C° 0 mm 3 mps 741 mmHg 67%
    22:00 +17°C° 0 mm 3 mps 741 mmHg 67%
    23:00 +16°C° 0 mm 3 mps 741 mmHg 67%
    Show more